Back to catalog

STARLINK-35052

AliveCommunicationsSSO
NORAD 65540·PAYLOAD·🇺🇸 United States

Launched Sep 6, 2025 from Cape Canaveral Space Force Station

Loading…

Next Passes (next 24 hours)

TLE

FreshSource: CelesTrak SupGP

Epoch: Sep 14, 2026, 20:40 UTC

1 65540C 25200W   26257.86159722 -.00034999  00000+0 -10869-2 0  2579
2 65540  97.2851 324.2918 0001069  93.2462 301.7548 15.33445268    15

Track STARLINK-35052 in real time with AllMySat

Download on the App Store